CW9703 Weather Reports


Display with metric or nautical units.
time (UTC)temp
F
wind
direction
speed
MPH
gust
MPH
rain 1hr
in
rain 24hr
in
rain mn
in
humidity
%
barometer
mb
20181115103331 32 129 10.0 10.0 0.00 0.00 0.00 81 1029.4
20181115101125 32 151 7.0 10.0 0.00 0.00 0.00 80 1029.5
20181115094925 32 150 6.0 10.0 0.00 0.00 0.00 79 1029.8
20181115092725 31 161 8.0 10.0 0.00 0.00 0.00 77 1030.0
20181115090525 31 144 7.0 10.0 0.00 0.00 0.00 77 1030.5
20181115084325 32 141 9.0 10.0 0.00 0.00 0.00 77 1030.9
20181115075924 32 164 8.0 10.0 0.00 0.00 0.00 79 1031.7
20181115073724 32 161 8.0 11.0 0.00 0.00 0.00 79 1031.7
20181115063123 32 132 7.0 9.0 0.00 0.00 0.00 78 1031.9
20181115044131 32 149 10.0 12.0 0.00 0.00 0.00 78 1033.0
20181115043021 32 146 10.0 11.0 0.00 0.00 0.00 76 1033.5
20181115040831 32 152 8.0 13.0 0.00 0.00 0.00 71 1033.5
20181115035721 32 158 10.0 14.0 0.00 0.00 0.00 72 1033.8
20181115033520 31 161 7.0 10.0 0.00 0.00 0.00 74 1033.7
20181115030220 31 139 7.0 10.0 0.00 0.00 0.00 74 1033.8
20181115024020 31 130 8.0 10.0 0.00 0.00 0.00 74 1034.2
20181115012320 31 150 8.0 9.0 0.00 0.00 0.00 73 1035.4
20181115003918 31 112 6.0 9.0 0.00 0.00 0.00 73 1035.1
20181115001718 31 302 5.0 9.0 0.00 0.00 0.00 65 1035.3
20181114235517 31 244 2.0 9.0 0.00 0.00 0.00 66 1035.8
20181114233317 30 267 3.0 5.0 0.00 0.00 0.00 66 1035.9
20181114224916 29 69 0.0 3.0 0.00 0.00 0.00 66 1035.6
20181114220517 30 86 3.0 6.0 0.00 0.00 0.00 67 1035.5
20181114214326 31 107 4.0 7.0 0.00 0.00 0.00 67 1035.4
20181114213216 31 99 2.0 7.0 0.00 0.00 0.00 65 1035.4
20181114200414 32 186 0.0 1.0 0.00 0.00 0.00 61 1035.7
20181114194214 31 107 2.0 5.0 0.00 0.00 0.00 66 1035.6
20181114192014 32 344 1.0 4.0 0.00 0.00 0.00 58 1035.6
20181114185814 31 237 0.0 3.0 0.00 0.00 0.00 60 1035.4
20181114183614 31 323 2.0 4.0 0.00 0.00 0.00 61 1035.4
20181114181413 29 292 2.0 4.0 0.00 0.00 0.00 61 1035.7
20181114175213 30 325 5.0 7.0 0.00 0.00 0.00 61 1036.1
20181114173012 31 295 4.0 8.0 0.00 0.00 0.00 60 1036.4
20181114170812 31 360 2.0 5.0 0.00 0.00 0.00 63 1036.5
20181114161311 28 311 1.0 8.0 0.00 0.00 0.00 71 1036.8
20181114155111 27 252 5.0 9.0 0.00 0.00 0.00 75 1036.7
20181114150711 26 302 4.0 9.0 0.00 0.00 0.00 74 1036.3
20181114143410 25 281 4.0 10.0 0.00 0.00 0.00 75 1036.0
20181114141210 25 274 7.0 12.0 0.00 0.00 0.00 77 1035.8
20181114135009 25 251 8.0 12.0 0.00 0.00 0.00 77 1035.4
20181114132749 24 274 6.0 10.0 0.00 0.00 0.00 78 1035.1
20181114114846 24 245 6.0 10.0 0.00 0.00 0.00 78 1032.9
20181114112645 25 242 7.0 10.0 0.00 0.00 0.00 81 1032.8
20181114110445 25 256 7.0 10.0 0.00 0.00 0.00 81 1032.8